This is the latest recevied weather packets stored in our database for station/object SV3AQT-13. If no packets are shown the sender has not sent any weather packets the latest 10 day(s).
| Time | Temp. | Humidity | Pressure | Rain* | Wind** | Luminosity | Snow |
|---|---|---|---|---|---|---|---|
| 1788531421 | 30° C | 68% | 1016.9 hPa | 0 mm | 2.24 m/s, 59° | - | - |
| 1788531240 | 30° C | 67% | 1016.9 hPa | 0 mm | 2.24 m/s, 55° | - | - |
| 1788531062 | 30° C | 66% | 1016.9 hPa | 0 mm | 2.24 m/s, 49° | - | - |
| 1788530882 | 30.56° C | 65% | 1016.9 hPa | 0 mm | 1.34 m/s, 49° | - | - |
| 1788530701 | 31.11° C | 62% | 1016.9 hPa | 0 mm | 0.89 m/s, 74° | - | - |
| 1788530521 | 31.67° C | 64% | 1016.9 hPa | 0 mm | 0.45 m/s, 74° | - | - |
| 1788530341 | 31.67° C | 66% | 1016.9 hPa | 0 mm | 0 m/s | - | - |
| 1788530161 | 31.67° C | 68% | 1016.9 hPa | 0 mm | 0 m/s | - | - |
| 1788529981 | 31.11° C | 67% | 1016.9 hPa | 0 mm | 0 m/s | - | - |
| 1788529802 | 30.56° C | 67% | 1016.9 hPa | 0 mm | 0 m/s | - | - |
| 1788529621 | 30° C | 71% | 1016.9 hPa | 0 mm | 0 m/s | - | - |
| 1788529441 | 29.44° C | 71% | 1016.9 hPa | 0 mm | 0.89 m/s, 18° | - | - |
| 1788529261 | 29.44° C | 72% | 1016.9 hPa | 0 mm | 1.79 m/s, 52° | - | - |
| 1788529082 | 30.56° C | 68% | 1016.9 hPa | 0 mm | 2.24 m/s, 48° | - | - |
| 1788528901 | 30° C | 71% | 1016.5 hPa | 0 mm | 1.79 m/s, 48° | - | - |
| 1788528722 | 31.11° C | 70% | 1016.5 hPa | 0 mm | 1.34 m/s, 39° | - | - |
| 1788528541 | 31.11° C | 68% | 1016.5 hPa | 0 mm | 0.89 m/s, 67° | - | - |
| 1788528361 | 30.56° C | 69% | 1016.5 hPa | 0 mm | 1.79 m/s, 46° | - | - |
| 1788528234 | 30.56° C | 69% | 1016.5 hPa | 0 mm | 1.34 m/s, 51° | - | - |
| 1788528054 | 30.56° C | 69% | 1016.5 hPa | 0 mm | 0.89 m/s, 75° | - | - |
| 1788527873 | 30.56° C | 68% | 1016.5 hPa | 0 mm | 1.34 m/s, 95° | - | - |
| 1788527694 | 30.56° C | 68% | 1016.5 hPa | 0 mm | 1.34 m/s, 70° | - | - |
| 1788527514 | 30.56° C | 67% | 1016.5 hPa | 0 mm | 1.34 m/s, 73° | - | - |
| 1788527333 | 30.56° C | 69% | 1016.5 hPa | 0 mm | 2.68 m/s, 63° | - | - |
| 1788527154 | 30.56° C | 69% | 1016.5 hPa | 0 mm | 2.68 m/s, 68° | - | - |
* Rain latest hour (hover to see other rain measurements)
** Current wind speed in m/s (hover to see current wind gust speed)